Location: Winter Haven
(28.0220°N, 81.7330°W)
Time: 07:57:54
(UTC-04:00)

Amateur Radio Satellites - All Passes

Search period start: 20 September 2014 07:27
Search period end: 21 September 2014 07:27
Location: Winter Haven, 28.0220°N, 81.7330°W

Satellite Date Start Highest point End Downlink Frequencies (MHz)
Time Altitude Azimuth
STRAND 1 20 Sep 07:31:47 07:36:50 76° 76° (ENE) 07:41:55 ?
JAS-2 20 Sep 07:31:57 07:38:14 71° 284° (WNW) 07:45:19 435.800 - 435.900 CW/SSB, 435.910 FM
Hamsat 20 Sep 07:36:36 07:40:41 48° 284° (WNW) 07:44:42 145.90 MHz
RS-15 20 Sep 07:40:34 07:45:34 14° 322° (NW) 07:50:36 29.354 - 29.394 USB, Beacon 29.352 USB
SO-50 20 Sep 08:15:49 08:20:36 59° 62° (ENE) 08:25:24 436.795 FM
MaSat-1 20 Sep 08:22:44 08:27:35 61° 108° (ESE) 08:32:32 437.345 MHz
SO-67 20 Sep 08:44:12 08:47:32 49° 283° (WNW) 08:50:51 435.3500 MHz FM
ISS 20 Sep 09:46:27 09:48:26 15° 38° (NE) 09:50:24 145.800 FM
UOSAT-12 20 Sep 09:50:43 09:55:10 41° 60° (ENE) 09:59:32 437.025 FM, 437.400 FM
SO-50 20 Sep 09:59:29 10:00:38 11° 253° (WSW) 10:01:48 436.795 FM
MaSat-1 20 Sep 10:02:32 10:04:39 13° 301° (WNW) 10:06:47 437.345 MHz
HO-68 20 Sep 10:25:34 10:32:46 78° 104° (ESE) 10:39:57 435.675 MHz FM
FUNcube-1 20 Sep 10:40:56 10:43:17 14° 94° (E) 10:45:37 145.950 - 145.970 MHz USB
Oscar 11 20 Sep 10:47:33 10:51:44 46° 100° (E) 10:55:52 145.825 FM, Beacon 2401.500 USB
UKube-1 20 Sep 11:04:48 11:09:09 73° 284° (WNW) 11:13:29 145.840 MHz, 145.915 MHz
Sapphire 20 Sep 11:07:47 11:09:51 12° 103° (ESE) 11:11:55 437.095 MHz 1200 baud AX-25 AFSK
ISS 20 Sep 11:22:09 11:25:13 35° 231° (SW) 11:28:16 145.800 FM
PCSat 20 Sep 11:32:08 11:36:32 26° 107° (ESE) 11:40:58 145.825 MHz
UOSAT-12 20 Sep 11:32:26 11:34:53 14° 252° (WSW) 11:37:19 437.025 FM, 437.400 FM
FUNcube-1 20 Sep 12:15:29 12:19:44 38° 286° (WNW) 12:23:55 145.950 - 145.970 MHz USB
HO-68 20 Sep 12:15:54 12:19:37 15° 298° (WNW) 12:23:20 435.675 MHz FM
RS-15 20 Sep 12:19:42 12:26:19 17° 41° (NE) 12:33:02 29.354 - 29.394 USB, Beacon 29.352 USB
Oscar 11 20 Sep 12:26:35 12:27:26 11° 292° (WNW) 12:28:17 145.825 FM, Beacon 2401.500 USB
Sapphire 20 Sep 12:47:22 12:52:40 59° 295° (WNW) 12:58:01 437.095 MHz 1200 baud AX-25 AFSK
Oscar 10/S400 20 Sep 12:48:59 13:25:15 26° 158° (SSE) 13:40:57 145.825 - 145.975 CW/USB, Beacon 145.810 USB
PCSat 20 Sep 13:15:05 13:19:46 30° 300° (WNW) 13:24:28 145.825 MHz
Oscar 16 20 Sep 13:21:53 13:25:33 20° 69° (ENE) 13:29:13 437.025 USB, Beacon 2401.1428
ITAMSAT 1 20 Sep 14:06:48 14:10:40 22° 70° (ENE) 14:14:33 435.822 SSB
Uribyol 2 20 Sep 14:10:25 14:14:36 26° 70° (ENE) 14:18:48 436.500 FM
Oscar 19 20 Sep 14:20:21 14:25:32 83° 76° (ENE) 14:30:45 437.125 CW, 437.150 USB
JAS-1B 20 Sep 14:21:31 14:30:08 53° 73° (ENE) 14:37:27 435.800 - 435.900 CW/SSB
RS-15 20 Sep 14:29:25 14:40:41 75° 63° (ENE) 14:52:25 29.354 - 29.394 USB, Beacon 29.352 USB
TMSAT-1 20 Sep 14:37:47 14:40:25 14° 67° (ENE) 14:43:03 436.925 FM
AO-27 20 Sep 14:40:44 14:45:43 52° 74° (ENE) 14:50:44 436.795 MHz FM
Oscar 16 20 Sep 14:59:52 15:04:35 36° 261° (W) 15:09:20 437.025 USB, Beacon 2401.1428
AO-Echo 20 Sep 15:05:47 15:10:33 70° 258° (WSW) 15:15:14 ?
AO-7 20 Sep 15:29:11 15:34:28 19° 60° (ENE) 15:39:42 29.400 - 29.500 MHz
Gurwin Techsat 1B 20 Sep 15:38:03 15:43:21 90° 76° (ENE) 15:48:40 435.225 FM
ITAMSAT 1 20 Sep 15:45:21 15:49:54 32° 262° (W) 15:54:28 435.822 SSB
Uribyol 2 20 Sep 15:49:36 15:53:54 27° 262° (W) 15:58:14 436.500 FM
JAS-1B 20 Sep 16:13:19 16:20:32 27° 261° (W) 16:26:59 435.800 - 435.900 CW/SSB
TMSAT-1 20 Sep 16:14:41 16:19:49 53° 259° (W) 16:24:59 436.925 FM
Uosat F 20 Sep 16:17:35 16:21:24 22° 70° (ENE) 16:25:12 435.120 FM
AO-27 20 Sep 16:23:14 16:25:25 13° 266° (W) 16:27:36 436.795 MHz FM
Saudisat 1A 20 Sep 16:37:53 16:41:48 33° 112° (ESE) 16:45:44 436.775 MHz
RS-15 20 Sep 16:44:05 16:52:00 22° 257° (WSW) 17:00:11 29.354 - 29.394 USB, Beacon 29.352 USB
AO-7 20 Sep 17:18:02 17:26:20 76° 255° (WSW) 17:34:39 29.400 - 29.500 MHz
OPAL 20 Sep 17:28:50 17:33:09 27° 99° (E) 17:37:24 ?
JAS-2 20 Sep 17:39:52 17:43:33 19° 70° (ENE) 17:47:09 435.800 - 435.900 CW/SSB, 435.910 FM
Uosat F 20 Sep 17:55:39 17:59:57 29° 262° (W) 18:04:16 435.120 FM
Saudisat 1A 20 Sep 18:18:25 18:21:23 18° 305° (NW) 18:24:22 436.775 MHz
Hamsat 20 Sep 18:22:36 18:26:47 46° 75° (ENE) 18:30:57 145.90 MHz
MaSat-1 20 Sep 18:23:46 18:26:30 21° 62° (ENE) 18:28:55 437.345 MHz
KITSAT 1 20 Sep 18:52:00 18:59:27 42° 108° (ESE) 19:06:54 435.175 FM
OPAL 20 Sep 19:07:42 19:11:51 25° 292° (WNW) 19:15:57 ?
SO-67 20 Sep 19:11:26 19:13:35 16° 73° (ENE) 19:15:44 435.3500 MHz FM
JAS-2 20 Sep 19:23:34 19:28:26 34° 261° (W) 19:33:06 435.800 - 435.900 CW/SSB, 435.910 FM
STRAND 1 20 Sep 19:49:33 19:54:29 46° 100° (E) 19:59:25 ?
SO-67 20 Sep 20:44:04 20:46:25 17° 264° (W) 20:48:46 435.3500 MHz FM
HO-68 20 Sep 20:47:28 20:53:21 29° 67° (ENE) 20:59:14 435.675 MHz FM
KITSAT 1 20 Sep 20:47:39 20:54:48 34° 303° (WNW) 21:01:59 435.175 FM
STRAND 1 20 Sep 21:30:22 21:33:14 15° 292° (WNW) 21:36:05 ?
Oscar 11 20 Sep 21:37:08 21:39:48 16° 70° (ENE) 21:42:28 145.825 FM, Beacon 2401.500 USB
Sapphire 20 Sep 21:42:55 21:47:25 26° 60° (ENE) 21:51:53 437.095 MHz 1200 baud AX-25 AFSK
UKube-1 20 Sep 21:53:35 21:57:35 38° 74° (ENE) 22:01:35 145.840 MHz, 145.915 MHz
PCSat 20 Sep 22:09:13 22:14:29 51° 64° (ENE) 22:19:43 145.825 MHz
SO-50 20 Sep 22:24:08 22:28:33 83° 296° (WNW) 22:33:05 436.795 FM
HO-68 20 Sep 22:34:07 22:40:43 41° 260° (W) 22:47:23 435.675 MHz FM
FUNcube-1 20 Sep 23:04:23 23:08:42 72° 77° (ENE) 23:13:09 145.950 - 145.970 MHz USB
Oscar 11 20 Sep 23:11:49 23:15:40 31° 262° (W) 23:19:32 145.825 FM, Beacon 2401.500 USB
Sapphire 20 Sep 23:26:03 23:30:44 30° 253° (WSW) 23:35:24 437.095 MHz 1200 baud AX-25 AFSK
UKube-1 20 Sep 23:32:05 23:33:50 12° 265° (W) 23:35:36 145.840 MHz, 145.915 MHz
PCSat 20 Sep 23:54:32 23:57:23 15° 256° (WSW) 00:00:14 145.825 MHz
UOSAT-12 20 Sep 23:54:54 23:59:24 64° 114° (ESE) 00:04:00 437.025 FM, 437.400 FM
PANSAT 21 Sep 00:11:14 00:14:26 25° 158° (SSE) 00:17:38 not established
ISS 21 Sep 00:48:34 00:49:26 11° 124° (SE) 00:50:19 145.800 FM
UOSAT-12 21 Sep 01:38:36 01:39:56 11° 309° (NW) 01:41:15 437.025 FM, 437.400 FM
Oscar 16 21 Sep 01:42:04 01:43:47 12° 94° (E) 01:45:30 437.025 USB, Beacon 2401.1428
PANSAT 21 Sep 01:50:33 01:54:22 72° 168° (SSE) 01:58:11 not established
JAS-1B 21 Sep 02:17:21 02:20:06 14° 96° (E) 02:22:55 435.800 - 435.900 CW/SSB
ISS 21 Sep 02:22:40 02:25:49 40° 316° (NW) 02:28:58 145.800 FM
ITAMSAT 1 21 Sep 02:27:34 02:30:08 14° 95° (E) 02:32:42 435.822 SSB
Uribyol 2 21 Sep 02:30:49 02:34:03 17° 95° (E) 02:37:16 436.500 FM
RS-15 21 Sep 02:37:24 02:43:42 17° 102° (ESE) 02:49:53 29.354 - 29.394 USB, Beacon 29.352 USB
Oscar 19 21 Sep 02:39:15 02:44:17 53° 101° (E) 02:49:15 437.125 CW, 437.150 USB
Saudisat 1A 21 Sep 02:50:00 02:54:18 52° 61° (ENE) 02:58:35 436.775 MHz
AO-27 21 Sep 03:01:03 03:05:46 34° 99° (E) 03:10:28 436.795 MHz FM
Oscar 16 21 Sep 03:18:19 03:23:21 56° 285° (WNW) 03:28:22 437.025 USB, Beacon 2401.1428
AO-Echo 21 Sep 03:19:29 03:24:23 67° 102° (ESE) 03:29:25 ?
PANSAT 21 Sep 03:30:42 03:34:33 82° 1° (N) 03:38:23 not established
Gurwin Techsat 1B 21 Sep 04:01:27 04:06:44 66° 102° (ESE) 04:11:59 435.225 FM
ITAMSAT 1 21 Sep 04:04:45 04:09:46 49° 286° (WNW) 04:14:47 435.822 SSB
JAS-1B 21 Sep 04:05:32 04:10:58 50° 287° (WNW) 04:16:38 435.800 - 435.900 CW/SSB
Uribyol 2 21 Sep 04:08:42 04:13:35 42° 287° (WNW) 04:18:28 436.500 FM
Oscar 19 21 Sep 04:20:43 04:23:06 13° 293° (WNW) 04:25:28 437.125 CW, 437.150 USB
Uosat F 21 Sep 04:33:47 04:35:36 12° 94° (E) 04:37:25 435.120 FM
OPAL 21 Sep 04:37:18 04:41:19 23° 68° (ENE) 04:45:22 ?
TMSAT-1 21 Sep 04:37:31 04:42:48 74° 284° (WNW) 04:48:04 436.925 FM
AO-27 21 Sep 04:41:11 04:44:59 21° 291° (WNW) 04:48:48 436.795 MHz FM
RS-15 21 Sep 04:43:31 04:54:43 85° 295° (WNW) 05:05:41 29.354 - 29.394 USB, Beacon 29.352 USB
KITSAT 1 21 Sep 04:47:52 04:55:14 38° 58° (ENE) 05:02:33 435.175 FM
PANSAT 21 Sep 05:10:55 05:14:42 60° 194° (SSW) 05:18:29 not established
AO-7 21 Sep 05:27:34 05:35:44 60° 104° (ESE) 05:43:52 29.400 - 29.500 MHz
Gurwin Techsat 1B 21 Sep 05:44:35 05:46:03 11° 294° (WNW) 05:47:32 435.225 FM
Uosat F 21 Sep 06:09:41 06:14:34 53° 286° (WNW) 06:19:26 435.120 FM
OPAL 21 Sep 06:15:26 06:19:57 31° 260° (W) 06:24:31 ?
Hamsat 21 Sep 06:16:56 06:19:09 14° 95° (E) 06:21:22 145.90 MHz
JAS-2 21 Sep 06:37:18 06:43:20 41° 100° (E) 06:50:03 435.800 - 435.900 CW/SSB, 435.910 FM
KITSAT 1 21 Sep 06:43:14 06:50:27 38° 253° (WSW) 06:57:40 435.175 FM
PANSAT 21 Sep 06:51:44 06:54:34 20° 204° (SSW) 06:57:24 not established
STRAND 1 21 Sep 06:59:00 07:03:29 33° 72° (ENE) 07:07:59 ?
RS-15 21 Sep 07:01:28 07:08:38 19° 317° (NW) 07:15:50 29.354 - 29.394 USB, Beacon 29.352 USB
SO-50 21 Sep 07:03:38 07:06:32 16° 54° (NE) 07:09:27 436.795 FM
